Location: Unspecified
(51.0000°N, 12.0000°E)
Time: 16:54:00
(UTC+01:00)

N. Korean satellite - Pass Details

Date: 20 October 2019
Orbit: 456 x 506 km, 97.2° (Epoch: 12 November)

Event Time Altitude Azimuth Distance (km) Brightness Sun altitude
Rises 18:59:27 0° 197° (SSW) 2,466 10.5 -8.5°
Reaches altitude 10° 19:01:47 10° 213° (SSW) 1,600 9.8 -8.8°
Maximum altitude 19:04:32 22° 267° (W) 1,052 9.4 -9.3°
Drops below altitude 10° 19:07:19 10° 320° (NW) 1,624 9.7 -9.7°
Sets 19:09:43 0° 336° (NNW) 2,513 10.5 -10.1°
